| time (UTC) | temp C | wind direction | speed KPH | gust KPH | rain 1hr cm | rain 24hr cm | rain mn cm | humidity % | barometer mb |
| 20260508135518 | 19 | 223 | 1.6 | 3.2 | 0.00 | 0.00 | 0.00 | 42 | 1013.3 |
| 20260508135017 | 18 | 255 | 0.0 | 3.2 | 0.00 | 0.00 | 0.00 | 46 | 1013.3 |
| 20260508134757 | 18 | 245 | 0.0 | 8.0 | 0.00 | 0.00 | 0.00 | 44 | 1013.4 |
| 20260508134017 | 18 | 243 | 3.2 | 8.0 | 0.00 | 0.00 | 0.00 | 42 | 1013.4 |
| 20260508133516 | 19 | 289 | 0.0 | 6.4 | 0.00 | 0.00 | 0.00 | 44 | 1013.6 |
| 20260508133015 | 18 | 7 | 0.0 | 6.4 | 0.00 | 0.00 | 0.00 | 45 | 1013.5 |
| 20260508132516 | 18 | 343 | 0.0 | 11.3 | 0.00 | 0.00 | 0.00 | 44 | 1013.6 |
| 20260508132254 | 18 | 285 | 1.6 | 11.3 | 0.00 | 0.00 | 0.00 | 44 | 1013.6 |
| 20260508131510 | 18 | 347 | 0.0 | 4.8 | 0.00 | 0.00 | 0.00 | 46 | 1013.6 |
| 20260508131011 | 18 | 227 | 1.6 | 4.8 | 0.00 | 0.00 | 0.00 | 45 | 1013.7 |
| 20260508130511 | 18 | 343 | 0.0 | 9.7 | 0.00 | 0.00 | 0.00 | 49 | 1013.7 |
| 20260508130011 | 18 | 331 | 1.6 | 9.7 | 0.00 | 0.00 | 0.00 | 49 | 1013.7 |
| 20260508125509 | 17 | 281 | 0.0 | 4.8 | 0.00 | 0.00 | 0.00 | 51 | 1013.7 |
| 20260508125008 | 17 | 333 | 3.2 | 4.8 | 0.00 | 0.00 | 0.00 | 52 | 1013.8 |
| 20260508124508 | 17 | 316 | 0.0 | 4.8 | 0.00 | 0.00 | 0.00 | 54 | 1013.8 |
| 20260508124008 | 17 | 355 | 1.6 | 4.8 | 0.00 | 0.00 | 0.00 | 50 | 1013.8 |
| 20260508123508 | 17 | 336 | 1.6 | 4.8 | 0.00 | 0.00 | 0.00 | 56 | 1013.7 |
| 20260508123312 | 16 | 241 | 0.0 | 1.6 | 0.00 | 0.00 | 0.00 | 59 | 1013.6 |
| 20260508123306 | 16 | 241 | 0.0 | 1.6 | 0.00 | 0.00 | 0.00 | 57 | 1013.8 |
| 20260508122007 | 16 | 293 | 0.0 | 1.6 | 0.00 | 0.00 | 0.00 | 62 | 1013.6 |
| 20260508121508 | 15 | 293 | 0.0 | 3.2 | 0.00 | 0.00 | 0.00 | 63 | 1013.5 |
| 20260508121008 | 15 | 293 | 0.0 | 3.2 | 0.00 | 0.00 | 0.00 | 65 | 1013.6 |
| 20260508120811 | 14 | 274 | 0.0 | 1.6 | 0.00 | 0.00 | 0.00 | 71 | 1013.5 |
| 20260508120807 | 15 | 274 | 0.0 | 3.2 | 0.00 | 0.00 | 0.00 | 67 | 1013.6 |
| 20260508115507 | 12 | 269 | 0.0 | 0.0 | 0.00 | 0.00 | 0.00 | 75 | 1013.4 |
| 20260508115007 | 11 | 269 | 0.0 | 0.0 | 0.00 | 0.00 | 0.00 | 76 | 1013.4 |
| 20260508114507 | 10 | 269 | 0.0 | 0.0 | 0.00 | 0.00 | 0.00 | 79 | 1013.3 |
| 20260508114008 | 10 | 269 | 0.0 | 0.0 | 0.00 | 0.00 | 0.00 | 81 | 1013.4 |
| 20260508113506 | 9 | 269 | 0.0 | 0.0 | 0.00 | 0.00 | 0.00 | 81 | 1013.3 |
| 20260508113245 | 8 | 269 | 0.0 | 0.0 | 0.00 | 0.00 | 0.00 | 84 | 1013.2 |
| 20260508112906 | 7 | 269 | 0.0 | 0.0 | 0.00 | 0.00 | 0.00 | 88 | 1013.1 |
| 20260508112814 | 8 | 269 | 0.0 | 0.0 | 0.00 | 0.00 | 0.00 | 86 | 1013.1 |
| 20260508112718 | 6 | 269 | 0.0 | 0.0 | 0.00 | 0.00 | 0.00 | 89 | 1013.0 |
| 20260508111527 | 6 | 269 | 0.0 | 0.0 | 0.00 | 0.00 | 0.00 | 89 | 1013.0 |
| 20260508111249 | 6 | 269 | 0.0 | 0.0 | 0.00 | 0.00 | 0.00 | 90 | 1012.8 |
| 20260508111209 | 5 | 269 | 0.0 | 0.0 | 0.00 | 0.00 | 0.00 | 90 | 1012.8 |
| 20260508111135 | 5 | 269 | 0.0 | 0.0 | 0.00 | 0.00 | 0.00 | 90 | 1012.6 |
| 20260508111125 | 5 | 269 | 0.0 | 0.0 | 0.00 | 0.00 | 0.00 | 90 | 1012.8 |
| 20260508111118 | 5 | 269 | 0.0 | 0.0 | 0.00 | 0.00 | 0.00 | 90 | 1012.8 |
| 20260508104516 | 5 | 269 | 0.0 | 0.0 | 0.00 | 0.00 | 0.00 | 90 | 1012.5 |
| 20260508104005 | 5 | 269 | 0.0 | 0.0 | 0.00 | 0.00 | 0.00 | 89 | 1012.6 |
| 20260508103505 | 5 | 269 | 0.0 | 0.0 | 0.00 | 0.00 | 0.00 | 88 | 1012.5 |
| 20260508103247 | 5 | 269 | 0.0 | 0.0 | 0.00 | 0.00 | 0.00 | 88 | 1012.5 |
| 20260508102504 | 5 | 269 | 0.0 | 0.0 | 0.00 | 0.00 | 0.00 | 88 | 1012.5 |
| 20260508102005 | 5 | 269 | 0.0 | 0.0 | 0.00 | 0.00 | 0.00 | 88 | 1012.4 |
| 20260508101503 | 5 | 269 | 0.0 | 0.0 | 0.00 | 0.00 | 0.00 | 88 | 1012.4 |
| 20260508101002 | 5 | 269 | 0.0 | 0.0 | 0.00 | 0.00 | 0.00 | 87 | 1012.3 |
| 20260508100745 | 5 | 269 | 0.0 | 0.0 | 0.00 | 0.00 | 0.00 | 86 | 1012.3 |
| 20260508100002 | 5 | 269 | 0.0 | 0.0 | 0.00 | 0.00 | 0.00 | 86 | 1012.1 |
| 20260508095503 | 5 | 269 | 0.0 | 0.0 | 0.00 | 0.00 | 0.00 | 86 | 1012.1 |
| 20260508095005 | 5 | 269 | 0.0 | 0.0 | 0.00 | 0.00 | 0.00 | 86 | 1012.0 |
| 20260508094740 | 5 | 269 | 0.0 | 0.0 | 0.00 | 0.00 | 0.00 | 86 | 1011.9 |
| 20260508094002 | 6 | 269 | 0.0 | 0.0 | 0.00 | 0.00 | 0.00 | 86 | 1012.0 |
| 20260508093502 | 6 | 269 | 0.0 | 0.0 | 0.00 | 0.00 | 0.00 | 86 | 1012.0 |
| 20260508093242 | 6 | 269 | 0.0 | 0.0 | 0.00 | 0.00 | 0.00 | 86 | 1012.0 |
| 20260508092502 | 6 | 269 | 0.0 | 0.0 | 0.00 | 0.00 | 0.00 | 85 | 1012.0 |
| 20260508092002 | 6 | 269 | 0.0 | 0.0 | 0.00 | 0.00 | 0.00 | 84 | 1012.0 |
| 20260508091454 | 6 | 269 | 0.0 | 1.6 | 0.00 | 0.00 | 0.00 | 84 | 1012.0 |
| 20260508090952 | 6 | 269 | 0.0 | 1.6 | 0.00 | 0.00 | 0.00 | 83 | 1011.9 |
| 20260508090452 | 6 | 269 | 0.0 | 3.2 | 0.00 | 0.00 | 0.00 | 82 | 1012.0 |
| 20260508085954 | 7 | 269 | 0.0 | 3.2 | 0.00 | 0.00 | 0.00 | 81 | 1011.8 |
| 20260508085452 | 7 | 269 | 0.0 | 3.2 | 0.00 | 0.00 | 0.00 | 80 | 1011.7 |
| 20260508084953 | 7 | 269 | 0.0 | 6.4 | 0.00 | 0.00 | 0.00 | 79 | 1011.7 |
| 20260508084733 | 7 | 266 | 0.0 | 6.4 | 0.00 | 0.00 | 0.00 | 78 | 1011.6 |
| 20260508083932 | 8 | 243 | 0.0 | 3.2 | 0.00 | 0.00 | 0.00 | 74 | 1011.6 |
| 20260508083433 | 8 | 243 | 0.0 | 3.2 | 0.00 | 0.00 | 0.00 | 71 | 1011.6 |
| 20260508083214 | 8 | 295 | 0.0 | 4.8 | 0.00 | 0.00 | 0.00 | 69 | 1011.6 |
| 20260508082431 | 8 | 295 | 0.0 | 4.8 | 0.00 | 0.00 | 0.00 | 69 | 1011.5 |
| 20260508081931 | 8 | 347 | 0.0 | 1.6 | 0.00 | 0.00 | 0.00 | 68 | 1011.5 |
| 20260508081430 | 9 | 347 | 0.0 | 3.2 | 0.00 | 0.00 | 0.00 | 68 | 1011.4 |
| 20260508080931 | 9 | 21 | 0.0 | 4.8 | 0.00 | 0.00 | 0.00 | 69 | 1011.3 |
| 20260508080432 | 9 | 238 | 1.6 | 4.8 | 0.00 | 0.00 | 0.00 | 69 | 1011.4 |
| 20260508075931 | 8 | 289 | 0.0 | 6.4 | 0.00 | 0.00 | 0.00 | 69 | 1011.4 |
| 20260508075431 | 8 | 289 | 1.6 | 6.4 | 0.00 | 0.00 | 0.00 | 70 | 1011.3 |
| 20260508074931 | 8 | 47 | 0.0 | 4.8 | 0.00 | 0.00 | 0.00 | 71 | 1011.2 |
| 20260508074430 | 8 | 48 | 0.0 | 6.4 | 0.00 | 0.00 | 0.00 | 73 | 1011.1 |
| 20260508073929 | 8 | 312 | 1.6 | 6.4 | 0.00 | 0.00 | 0.00 | 75 | 1011.1 |
| 20260508073430 | 8 | 230 | 1.6 | 4.8 | 0.00 | 0.00 | 0.00 | 77 | 1011.0 |
| 20260508072919 | 7 | 272 | 1.6 | 4.8 | 0.00 | 0.00 | 0.00 | 78 | 1010.9 |
| 20260508072419 | 7 | 309 | 0.0 | 0.0 | 0.00 | 0.00 | 0.00 | 77 | 1010.8 |
| 20260508071917 | 7 | 309 | 0.0 | 0.0 | 0.00 | 0.00 | 0.00 | 78 | 1010.8 |
| 20260508071419 | 8 | 309 | 0.0 | 0.0 | 0.00 | 0.00 | 0.00 | 78 | 1010.6 |
| 20260508071157 | 8 | 309 | 0.0 | 0.0 | 0.00 | 0.00 | 0.00 | 78 | 1010.6 |
| 20260508070415 | 8 | 309 | 0.0 | 1.6 | 0.00 | 0.00 | 0.00 | 77 | 1010.5 |
| 20260508070158 | 8 | 309 | 0.0 | 3.2 | 0.00 | 0.00 | 0.00 | 78 | 1010.6 |
| 20260508065414 | 8 | 309 | 0.0 | 3.2 | 0.00 | 0.00 | 0.00 | 78 | 1010.4 |
| 20260508064912 | 8 | 305 | 0.0 | 1.6 | 0.00 | 0.00 | 0.00 | 78 | 1010.4 |
| 20260508064408 | 8 | 305 | 1.6 | 1.6 | 0.00 | 0.00 | 0.00 | 79 | 1010.3 |
| 20260508063907 | 8 | 305 | 0.0 | 1.6 | 0.00 | 0.00 | 0.00 | 79 | 1010.4 |
| 20260508063409 | 8 | 305 | 0.0 | 3.2 | 0.00 | 0.00 | 0.00 | 80 | 1010.2 |
| 20260508063148 | 8 | 305 | 0.0 | 3.2 | 0.00 | 0.00 | 0.00 | 81 | 1010.1 |
| 20260508062404 | 8 | 310 | 1.6 | 3.2 | 0.00 | 0.00 | 0.00 | 82 | 1010.1 |
| 20260508061926 | 8 | 300 | 0.0 | 3.2 | 0.00 | 0.00 | 0.00 | 87 | 1010.1 |
| 20260508061918 | 8 | 10 | 0.0 | 3.2 | 0.00 | 0.00 | 0.00 | 84 | 1010.2 |
| 20260508060903 | 7 | 300 | 0.0 | 3.2 | 0.00 | 0.00 | 0.00 | 90 | 1010.0 |
| 20260508060403 | 7 | 300 | 0.0 | 3.2 | 0.00 | 0.00 | 0.00 | 92 | 1010.1 |
| 20260508055903 | 7 | 298 | 0.0 | 3.2 | 0.00 | 0.00 | 0.00 | 92 | 1010.1 |
| 20260508055401 | 7 | 298 | 0.0 | 3.2 | 0.00 | 0.00 | 0.00 | 92 | 1010.1 |
| 20260508054900 | 7 | 97 | 0.0 | 0.0 | 0.00 | 0.00 | 0.00 | 92 | 1010.2 |
| 20260508054400 | 7 | 97 | 0.0 | 0.0 | 0.00 | 0.00 | 0.00 | 93 | 1010.1 |
| 20260508053858 | 7 | 97 | 0.0 | 0.0 | 0.00 | 0.03 | 0.00 | 93 | 1010.1 |
| 20260508053359 | 7 | 97 | 0.0 | 0.0 | 0.00 | 0.03 | 0.00 | 92 | 1010.1 |
| 20260508052859 | 7 | 97 | 0.0 | 1.6 | 0.00 | 0.03 | 0.00 | 92 | 1010.1 |
| 20260508052358 | 7 | 97 | 0.0 | 1.6 | 0.00 | 0.03 | 0.00 | 92 | 1010.1 |
| 20260508051858 | 8 | 97 | 0.0 | 1.6 | 0.00 | 0.03 | 0.00 | 92 | 1010.1 |
| 20260508051639 | 8 | 97 | 0.0 | 0.0 | 0.00 | 0.03 | 0.00 | 92 | 1010.0 |
| 20260508050857 | 8 | 97 | 0.0 | 0.0 | 0.00 | 0.03 | 0.00 | 91 | 1010.0 |
| 20260508050400 | 8 | 97 | 0.0 | 0.0 | 0.00 | 0.03 | 0.00 | 92 | 1010.0 |
| 20260508045857 | 8 | 97 | 0.0 | 0.0 | 0.00 | 0.03 | 0.00 | 92 | 1009.9 |
| 20260508045356 | 8 | 97 | 0.0 | 0.0 | 0.00 | 0.03 | 0.00 | 92 | 1009.9 |
| 20260508044857 | 8 | 97 | 0.0 | 0.0 | 0.00 | 0.03 | 0.00 | 91 | 1009.9 |
| 20260508044355 | 8 | 97 | 0.0 | 0.0 | 0.00 | 0.03 | 0.00 | 91 | 1009.7 |
| 20260508043856 | 8 | 97 | 0.0 | 0.0 | 0.00 | 0.03 | 0.00 | 91 | 1009.6 |
| 20260508043358 | 8 | 97 | 0.0 | 0.0 | 0.00 | 0.03 | 0.00 | 91 | 1009.5 |
| 20260508042854 | 8 | 97 | 0.0 | 0.0 | 0.00 | 0.03 | 0.00 | 91 | 1009.6 |
| 20260508042353 | 8 | 97 | 0.0 | 1.6 | 0.00 | 0.03 | 0.00 | 91 | 1009.5 |
| 20260508041853 | 8 | 97 | 0.0 | 1.6 | 0.00 | 0.03 | 0.00 | 91 | 1009.4 |
| 20260508041351 | 8 | 100 | 0.0 | 0.0 | 0.00 | 0.03 | 0.00 | 91 | 1009.4 |
| 20260508040853 | 8 | 100 | 0.0 | 0.0 | 0.00 | 0.03 | 0.00 | 91 | 1009.4 |
| 20260508040349 | 8 | 100 | 0.0 | 0.0 | 0.00 | 0.03 | 0.00 | 90 | 1009.3 |
| 20260508035850 | 8 | 100 | 0.0 | 0.0 | 0.00 | 0.03 | 0.03 | 90 | 1009.2 |
| 20260508035349 | 8 | 100 | 0.0 | 0.0 | 0.00 | 0.03 | 0.03 | 90 | 1009.1 |
| 20260508034845 | 8 | 100 | 0.0 | 0.0 | 0.00 | 0.03 | 0.03 | 90 | 1009.1 |
| 20260508034343 | 8 | 100 | 0.0 | 1.6 | 0.00 | 0.03 | 0.03 | 90 | 1009.1 |
| 20260508033843 | 8 | 100 | 0.0 | 1.6 | 0.00 | 0.03 | 0.03 | 90 | 1009.0 |
| 20260508033339 | 8 | 100 | 0.0 | 1.6 | 0.00 | 0.03 | 0.03 | 90 | 1009.1 |
| 20260508032838 | 8 | 100 | 0.0 | 0.0 | 0.00 | 0.03 | 0.03 | 90 | 1009.1 |
| 20260508032335 | 8 | 100 | 0.0 | 1.6 | 0.00 | 0.03 | 0.03 | 89 | 1009.1 |
| 20260508032120 | 8 | 100 | 0.0 | 1.6 | 0.00 | 0.03 | 0.03 | 89 | 1009.0 |
| 20260508032114 | 8 | 100 | 0.0 | 1.6 | 0.00 | 0.03 | 0.03 | 89 | 1009.1 |
| 20260508031053 | 9 | 100 | 0.0 | 1.6 | 0.00 | 0.03 | 0.03 | 89 | 1009.0 |
| 20260508030559 | 9 | 100 | 0.0 | 1.6 | 0.00 | 0.03 | 0.03 | 89 | 1009.0 |
| 20260508025857 | 9 | 100 | 0.0 | 1.6 | 0.00 | 0.03 | 0.03 | 88 | 1009.0 |
| 20260508025848 | 8 | 100 | 0.0 | 1.6 | 0.00 | 0.03 | 0.03 | 88 | 1009.0 |
| 20260508024834 | 9 | 100 | 0.0 | 0.0 | 0.00 | 0.03 | 0.03 | 87 | 1008.9 |
| 20260508024333 | 9 | 100 | 0.0 | 0.0 | 0.00 | 0.03 | 0.03 | 87 | 1009.0 |
| 20260508023833 | 9 | 100 | 0.0 | 0.0 | 0.00 | 0.03 | 0.03 | 87 | 1008.9 |
| 20260508023331 | 9 | 100 | 0.0 | 0.0 | 0.00 | 0.03 | 0.03 | 86 | 1009.0 |
| 20260508023112 | 9 | 100 | 0.0 | 0.0 | 0.00 | 0.03 | 0.03 | 86 | 1009.0 |
| 20260508022327 | 9 | 100 | 0.0 | 0.0 | 0.00 | 0.03 | 0.03 | 86 | 1008.9 |
| 20260508021827 | 10 | 100 | 0.0 | 0.0 | 0.00 | 0.03 | 0.03 | 86 | 1008.9 |
| 20260508021327 | 10 | 100 | 0.0 | 0.0 | 0.00 | 0.03 | 0.03 | 86 | 1008.8 |
| 20260508020824 | 10 | 100 | 0.0 | 0.0 | 0.00 | 0.03 | 0.03 | 86 | 1008.9 |
| 20260508020326 | 10 | 100 | 0.0 | 0.0 | 0.00 | 0.03 | 0.03 | 85 | 1008.9 |
| 20260508015826 | 10 | 100 | 0.0 | 0.0 | 0.00 | 0.03 | 0.03 | 85 | 1008.7 |
| 20260508015325 | 10 | 100 | 0.0 | 0.0 | 0.00 | 0.03 | 0.03 | 85 | 1008.8 |
| 20260508014824 | 10 | 100 | 0.0 | 0.0 | 0.00 | 0.03 | 0.03 | 84 | 1008.7 |
| 20260508014324 | 10 | 100 | 0.0 | 0.0 | 0.00 | 0.03 | 0.03 | 84 | 1008.8 |
| 20260508013823 | 10 | 100 | 0.0 | 0.0 | 0.00 | 0.03 | 0.03 | 84 | 1008.6 |
| 20260508013322 | 10 | 100 | 0.0 | 0.0 | 0.00 | 0.03 | 0.03 | 83 | 1008.6 |
| 20260508012823 | 10 | 100 | 0.0 | 0.0 | 0.00 | 0.03 | 0.03 | 84 | 1008.7 |
| 20260508012321 | 10 | 100 | 0.0 | 0.0 | 0.00 | 0.03 | 0.03 | 83 | 1008.5 |
| 20260508011819 | 11 | 100 | 0.0 | 0.0 | 0.00 | 0.03 | 0.03 | 82 | 1008.5 |
| 20260508011559 | 11 | 100 | 0.0 | 0.0 | 0.00 | 0.03 | 0.03 | 82 | 1008.5 |
| 20260508010817 | 11 | 100 | 0.0 | 0.0 | 0.00 | 0.03 | 0.03 | 81 | 1008.4 |
| 20260508010317 | 11 | 100 | 0.0 | 1.6 | 0.00 | 0.03 | 0.03 | 81 | 1008.4 |
| 20260508005817 | 11 | 100 | 0.0 | 1.6 | 0.00 | 0.03 | 0.03 | 80 | 1008.3 |
| 20260508005314 | 11 | 100 | 0.0 | 0.0 | 0.00 | 0.03 | 0.03 | 80 | 1008.2 |
| 20260508005054 | 11 | 100 | 0.0 | 1.6 | 0.00 | 0.03 | 0.03 | 79 | 1008.0 |
| 20260508004316 | 11 | 100 | 0.0 | 1.6 | 0.00 | 0.03 | 0.03 | 79 | 1007.9 |
| 20260508003815 | 12 | 100 | 0.0 | 1.6 | 0.00 | 0.03 | 0.03 | 78 | 1008.0 |
| 20260508003314 | 12 | 96 | 0.0 | 1.6 | 0.00 | 0.03 | 0.03 | 78 | 1007.8 |
| 20260508003054 | 12 | 96 | 0.0 | 4.8 | 0.00 | 0.03 | 0.03 | 77 | 1007.8 |
| 20260508002312 | 12 | 96 | 0.0 | 4.8 | 0.00 | 0.03 | 0.03 | 76 | 1007.8 |
| 20260508002050 | 12 | 94 | 0.0 | 3.2 | 0.00 | 0.03 | 0.03 | 77 | 1007.8 |
| 20260508001312 | 12 | 93 | 0.0 | 3.2 | 0.00 | 0.03 | 0.03 | 76 | 1007.7 |
| 20260508000811 | 12 | 173 | 1.6 | 3.2 | 0.00 | 0.03 | 0.03 | 75 | 1007.7 |
| 20260508000312 | 13 | 121 | 0.0 | 4.8 | 0.00 | 0.03 | 0.03 | 75 | 1007.6 |
| 20260507235810 | 13 | 257 | 0.0 | 4.8 | 0.00 | 0.03 | 0.03 | 75 | 1007.5 |
| 20260507235549 | 13 | 58 | 0.0 | 3.2 | 0.00 | 0.03 | 0.03 | 74 | 1007.4 |
| 20260507234807 | 13 | 54 | 0.0 | 4.8 | 0.00 | 0.03 | 0.03 | 74 | 1007.3 |
| 20260507234309 | 13 | 52 | 1.6 | 4.8 | 0.00 | 0.03 | 0.03 | 73 | 1007.3 |
| 20260507233807 | 13 | 113 | 0.0 | 3.2 | 0.00 | 0.03 | 0.03 | 72 | 1007.2 |
| 20260507233308 | 13 | 49 | 0.0 | 3.2 | 0.00 | 0.03 | 0.03 | 72 | 1007.1 |
| 20260507232806 | 13 | 188 | 0.0 | 1.6 | 0.00 | 0.03 | 0.03 | 70 | 1007.1 |
| 20260507232306 | 14 | 254 | 0.0 | 4.8 | 0.00 | 0.03 | 0.03 | 70 | 1007.0 |
| 20260507231803 | 14 | 241 | 0.0 | 4.8 | 0.00 | 0.03 | 0.03 | 69 | 1006.9 |
| 20260507231304 | 14 | 109 | 1.6 | 6.4 | 0.00 | 0.03 | 0.03 | 68 | 1007.0 |
| 20260507230803 | 14 | 162 | 1.6 | 8.0 | 0.00 | 0.03 | 0.03 | 67 | 1006.8 |
| 20260507230303 | 15 | 252 | 0.0 | 8.0 | 0.00 | 0.03 | 0.03 | 67 | 1006.7 |
| 20260507225803 | 15 | 243 | 1.6 | 3.2 | 0.00 | 0.03 | 0.03 | 66 | 1006.6 |
| 20260507225305 | 15 | 245 | 1.6 | 6.4 | 0.00 | 0.03 | 0.03 | 64 | 1006.7 |
| 20260507224828 | 15 | 78 | 1.6 | 6.4 | 0.00 | 0.03 | 0.03 | 62 | 1006.5 |
| 20260507224820 | 15 | 247 | 3.2 | 6.4 | 0.00 | 0.03 | 0.03 | 63 | 1006.6 |
| 20260507223804 | 15 | 213 | 1.6 | 4.8 | 0.00 | 0.03 | 0.03 | 62 | 1006.4 |
| 20260507223545 | 15 | 200 | 0.0 | 4.8 | 0.00 | 0.03 | 0.03 | 63 | 1006.4 |
| 20260507223042 | 15 | 199 | 0.0 | 3.2 | 0.00 | 0.03 | 0.03 | 61 | 1006.3 |
| 20260507222305 | 16 | 202 | 1.6 | 8.0 | 0.00 | 0.03 | 0.03 | 61 | 1006.4 |
| 20260507221801 | 16 | 219 | 3.2 | 9.7 | 0.00 | 0.03 | 0.03 | 62 | 1006.4 |
| 20260507221301 | 16 | 82 | 3.2 | 9.7 | 0.00 | 0.03 | 0.03 | 61 | 1006.4 |
| 20260507220803 | 16 | 221 | 3.2 | 6.4 | 0.00 | 0.03 | 0.03 | 60 | 1006.4 |
| 20260507220304 | 16 | 197 | 0.0 | 3.2 | 0.00 | 0.03 | 0.03 | 62 | 1006.3 |
| 20260507220043 | 16 | 183 | 0.0 | 3.2 | 0.00 | 0.03 | 0.03 | 62 | 1006.3 |
| 20260507215300 | 16 | 182 | 1.6 | 4.8 | 0.00 | 0.03 | 0.03 | 60 | 1006.3 |
| 20260507214800 | 16 | 89 | 1.6 | 6.4 | 0.00 | 0.03 | 0.03 | 59 | 1006.4 |
| 20260507214302 | 16 | 82 | 1.6 | 6.4 | 0.00 | 0.03 | 0.03 | 59 | 1006.4 |
| 20260507213759 | 16 | 221 | 1.6 | 6.4 | 0.00 | 0.03 | 0.03 | 59 | 1006.4 |
| 20260507213258 | 16 | 204 | 3.2 | 6.4 | 0.00 | 0.03 | 0.03 | 59 | 1006.5 |
| 20260507212753 | 16 | 226 | 1.6 | 8.0 | 0.00 | 0.03 | 0.03 | 59 | 1006.5 |
| 20260507212251 | 16 | 199 | 1.6 | 8.0 | 0.00 | 0.03 | 0.03 | 58 | 1006.4 |
| 20260507211753 | 16 | 244 | 1.6 | 8.0 | 0.00 | 0.03 | 0.03 | 57 | 1006.4 |
| 20260507211252 | 16 | 202 | 3.2 | 8.0 | 0.00 | 0.03 | 0.03 | 57 | 1006.5 |
| 20260507211031 | 16 | 161 | 3.2 | 8.0 | 0.00 | 0.03 | 0.03 | 58 | 1006.4 |
| 20260507210251 | 17 | 240 | 3.2 | 8.0 | 0.00 | 0.03 | 0.03 | 58 | 1006.4 |
| 20260507210030 | 17 | 221 | 3.2 | 8.0 | 0.00 | 0.03 | 0.03 | 58 | 1006.4 |
| 20260507205250 | 17 | 39 | 1.6 | 4.8 | 0.00 | 0.03 | 0.03 | 57 | 1006.4 |
| 20260507204753 | 16 | 237 | 1.6 | 8.0 | 0.00 | 0.03 | 0.03 | 59 | 1006.3 |
| 20260507204248 | 16 | 165 | 1.6 | 8.0 | 0.00 | 0.03 | 0.03 | 60 | 1006.4 |
| 20260507203748 | 16 | 154 | 3.2 | 9.7 | 0.00 | 0.03 | 0.03 | 56 | 1006.3 |
| 20260507203246 | 16 | 148 | 3.2 | 9.7 | 0.00 | 0.03 | 0.03 | 59 | 1006.4 |
| 20260507203028 | 16 | 202 | 1.6 | 6.4 | 0.00 | 0.03 | 0.03 | 60 | 1006.4 |
| 20260507202243 | 15 | 207 | 1.6 | 4.8 | 0.00 | 0.03 | 0.03 | 61 | 1006.3 |
| 20260507201746 | 15 | 154 | 1.6 | 3.2 | 0.00 | 0.03 | 0.03 | 62 | 1006.4 |
| 20260507201241 | 15 | 199 | 0.0 | 8.0 | 0.00 | 0.03 | 0.03 | 62 | 1006.4 |
| 20260507200743 | 15 | 207 | 3.2 | 8.0 | 0.00 | 0.03 | 0.03 | 59 | 1006.5 |
| 20260507200543 | 16 | 130 | 1.6 | 3.2 | 0.00 | 0.03 | 0.03 | 60 | 1006.3 |
| 20260507200536 | 15 | 68 | 3.2 | 4.8 | 0.00 | 0.03 | 0.03 | 60 | 1006.5 |
| 20260507195238 | 16 | 341 | 0.0 | 4.8 | 0.00 | 0.03 | 0.03 | 58 | 1006.4 |
| 20260507194739 | 16 | 220 | 1.6 | 6.4 | 0.00 | 0.03 | 0.03 | 54 | 1006.4 |
| 20260507194236 | 17 | 310 | 1.6 | 6.4 | 0.00 | 0.03 | 0.03 | 51 | 1006.4 |
| 20260507193734 | 17 | 258 | 1.6 | 4.8 | 0.00 | 0.03 | 0.03 | 52 | 1006.2 |
| 20260507193233 | 17 | 274 | 0.0 | 4.8 | 0.00 | 0.03 | 0.03 | 52 | 1006.4 |
| 20260507192734 | 18 | 0 | 1.6 | 6.4 | 0.00 | 0.03 | 0.03 | 50 | 1006.6 |
| 20260507192232 | 18 | 207 | 1.6 | 6.4 | 0.00 | 0.03 | 0.03 | 46 | 1006.7 |
| 20260507191731 | 18 | 120 | 1.6 | 8.0 | 0.00 | 0.03 | 0.03 | 46 | 1006.8 |
| 20260507191235 | 18 | 42 | 0.0 | 14.5 | 0.00 | 0.03 | 0.03 | 49 | 1006.9 |
| 20260507190732 | 18 | 80 | 4.8 | 14.5 | 0.00 | 0.03 | 0.03 | 49 | 1007.0 |
| 20260507190231 | 18 | 116 | 3.2 | 9.7 | 0.00 | 0.03 | 0.03 | 46 | 1006.9 |
| 20260507185732 | 18 | 80 | 4.8 | 8.0 | 0.00 | 0.03 | 0.03 | 48 | 1007.0 |
| 20260507185231 | 19 | 165 | 0.0 | 4.8 | 0.00 | 0.03 | 0.03 | 45 | 1007.2 |
| 20260507184733 | 18 | 90 | 1.6 | 3.2 | 0.00 | 0.03 | 0.03 | 48 | 1007.1 |
| 20260507184232 | 19 | 227 | 0.0 | 14.5 | 0.00 | 0.03 | 0.03 | 49 | 1007.1 |
| 20260507183730 | 18 | 228 | 1.6 | 14.5 | 0.00 | 0.03 | 0.03 | 49 | 1007.1 |
| 20260507183231 | 18 | 48 | 3.2 | 9.7 | 0.00 | 0.03 | 0.03 | 47 | 1007.2 |
| 20260507182726 | 18 | 161 | 1.6 | 6.4 | 0.00 | 0.03 | 0.03 | 50 | 1007.2 |
| 20260507182223 | 18 | 89 | 1.6 | 6.4 | 0.00 | 0.03 | 0.03 | 52 | 1007.4 |
| 20260507181724 | 17 | 172 | 1.6 | 6.4 | 0.00 | 0.03 | 0.03 | 48 | 1007.6 |
| 20260507181505 | 17 | 97 | 1.6 | 8.0 | 0.00 | 0.03 | 0.03 | 51 | 1007.6 |
| 20260507180724 | 17 | 59 | 3.2 | 8.0 | 0.00 | 0.03 | 0.03 | 46 | 1007.7 |
| 20260507180223 | 18 | 93 | 1.6 | 11.3 | 0.00 | 0.03 | 0.03 | 49 | 1007.8 |
| 20260507175724 | 18 | 281 | 1.6 | 11.3 | 0.00 | 0.03 | 0.03 | 50 | 1007.7 |
| 20260507175219 | 18 | 23 | 3.2 | 6.4 | 0.00 | 0.03 | 0.03 | 48 | 1007.9 |
| 20260507174715 | 17 | 66 | 3.2 | 6.4 | 0.00 | 0.03 | 0.03 | 53 | 1007.9 |
| 20260507174215 | 16 | 279 | 3.2 | 9.7 | 0.00 | 0.03 | 0.03 | 51 | 1007.9 |
| 20260507173716 | 16 | 82 | 4.8 | 9.7 | 0.00 | 0.03 | 0.03 | 48 | 1008.0 |
| 20260507173215 | 16 | 175 | 4.8 | 9.7 | 0.00 | 0.03 | 0.03 | 49 | 1008.0 |
| 20260507172952 | 16 | 25 | 6.4 | 9.7 | 0.00 | 0.03 | 0.03 | 49 | 1008.2 |
| 20260507172212 | 16 | 79 | 1.6 | 9.7 | 0.00 | 0.03 | 0.03 | 56 | 1008.4 |
| 20260507171949 | 16 | 78 | 4.8 | 9.7 | 0.00 | 0.03 | 0.03 | 50 | 1008.6 |
| 20260507171210 | 16 | 281 | 0.0 | 4.8 | 0.00 | 0.03 | 0.03 | 51 | 1008.7 |
| 20260507170944 | 16 | 347 | 1.6 | 6.4 | 0.00 | 0.03 | 0.03 | 55 | 1008.8 |
| 20260507170204 | 15 | 223 | 3.2 | 6.4 | 0.00 | 0.03 | 0.03 | 56 | 1008.8 |
| 20260507165702 | 15 | 123 | 1.6 | 9.7 | 0.00 | 0.03 | 0.03 | 57 | 1008.9 |
| 20260507165203 | 15 | 99 | 3.2 | 9.7 | 0.00 | 0.03 | 0.03 | 56 | 1009.0 |
| 20260507164702 | 14 | 97 | 0.0 | 6.4 | 0.00 | 0.03 | 0.03 | 56 | 1009.1 |
| 20260507164202 | 15 | 106 | 3.2 | 4.8 | 0.00 | 0.03 | 0.03 | 57 | 1009.3 |
| 20260507163704 | 15 | 276 | 0.0 | 6.4 | 0.00 | 0.03 | 0.03 | 57 | 1009.1 |
| 20260507163203 | 15 | 268 | 1.6 | 6.4 | 0.00 | 0.03 | 0.03 | 57 | 1009.1 |
| 20260507162941 | 14 | 97 | 3.2 | 6.4 | 0.00 | 0.03 | 0.03 | 53 | 1009.2 |
| 20260507162441 | 15 | 20 | 1.6 | 6.4 | 0.00 | 0.03 | 0.03 | 58 | 1009.4 |
| 20260507161703 | 14 | 41 | 3.2 | 6.4 | 0.00 | 0.03 | 0.03 | 60 | 1009.5 |
| 20260507161202 | 13 | 89 | 1.6 | 6.4 | 0.00 | 0.03 | 0.03 | 58 | 1009.4 |
| 20260507160705 | 14 | 97 | 1.6 | 4.8 | 0.00 | 0.03 | 0.03 | 63 | 1009.5 |
| 20260507160203 | 14 | 221 | 1.6 | 4.8 | 0.00 | 0.03 | 0.03 | 64 | 1009.6 |
| 20260507155702 | 14 | 214 | 1.6 | 4.8 | 0.00 | 0.03 | 0.03 | 62 | 1009.6 |
| 20260507155442 | 14 | 102 | 0.0 | 3.2 | 0.00 | 0.03 | 0.03 | 61 | 1009.6 |
| 20260507154703 | 14 | 49 | 1.6 | 3.2 | 0.00 | 0.03 | 0.03 | 64 | 1009.5 |
| 20260507154201 | 13 | 49 | 0.0 | 4.8 | 0.00 | 0.03 | 0.03 | 62 | 1009.7 |
| 20260507153702 | 13 | 42 | 1.6 | 4.8 | 0.00 | 0.03 | 0.03 | 62 | 1009.7 |
| 20260507153202 | 13 | 265 | 0.0 | 4.8 | 0.00 | 0.03 | 0.03 | 63 | 1009.8 |
| 20260507152703 | 13 | 276 | 1.6 | 4.8 | 0.00 | 0.05 | 0.03 | 63 | 1009.9 |
| 20260507152439 | 13 | 278 | 1.6 | 4.8 | 0.00 | 0.05 | 0.03 | 62 | 1010.0 |
| 20260507151704 | 14 | 61 | 1.6 | 4.8 | 0.00 | 0.05 | 0.03 | 65 | 1009.9 |
| 20260507151440 | 13 | 82 | 0.0 | 4.8 | 0.00 | 0.05 | 0.03 | 63 | 1009.9 |
| 20260507150702 | 13 | 82 | 0.0 | 4.8 | 0.00 | 0.05 | 0.03 | 65 | 1010.0 |
| 20260507150202 | 13 | 83 | 1.6 | 4.8 | 0.00 | 0.08 | 0.03 | 66 | 1010.0 |
| 20260507145702 | 13 | 85 | 0.0 | 4.8 | 0.00 | 0.08 | 0.03 | 64 | 1010.1 |
| 20260507145441 | 13 | 106 | 1.6 | 3.2 | 0.00 | 0.10 | 0.03 | 65 | 1010.1 |
| 20260507144702 | 13 | 58 | 1.6 | 4.8 | 0.00 | 0.10 | 0.03 | 68 | 1010.2 |
| 20260507144203 | 12 | 63 | 0.0 | 4.8 | 0.00 | 0.13 | 0.03 | 66 | 1010.3 |
| 20260507143918 | 12 | 226 | 0.0 | 4.8 | 0.00 | 0.13 | 0.03 | 70 | 1010.4 |
| 20260507143138 | 12 | 290 | 0.0 | 3.2 | 0.00 | 0.15 | 0.03 | 69 | 1010.4 |
| 20260507142920 | 12 | 290 | 0.0 | 3.2 | 0.00 | 0.15 | 0.03 | 68 | 1010.4 |
| 20260507142140 | 12 | 289 | 0.0 | 1.6 | 0.00 | 0.15 | 0.03 | 70 | 1010.3 |
| 20260507141917 | 12 | 289 | 0.0 | 1.6 | 0.00 | 0.15 | 0.03 | 71 | 1010.5 |
| 20260507141138 | 12 | 289 | 0.0 | 1.6 | 0.00 | 0.15 | 0.03 | 73 | 1010.5 |
| 20260507140640 | 12 | 289 | 0.0 | 4.8 | 0.00 | 0.18 | 0.03 | 70 | 1010.5 |
| 20260507140420 | 12 | 289 | 1.6 | 4.8 | 0.00 | 0.18 | 0.03 | 71 | 1010.4 |